Location: Bauerbach
(50.4985°N, 10.3912°E)
Time: 01:26:50
(UTC+00:00)

SMAP - Pass Details

Date: 13 January 2026
Orbit: 681 x 683 km, 98.1° (Epoch: 6 February)

Event Time Altitude Azimuth Distance (km) Brightness Sun altitude
Rises 05:28:28 0° 17° (NNE) 3,057 6.5 -16.2°
Reaches altitude 10° 05:30:46 10° 21° (NNE) 2,137 5.7 -15.8°
Maximum altitude 05:35:22 58° 101° (E) 798 3.7 -15.1°
Drops below altitude 10° 05:39:57 10° 181° (S) 2,119 5.8 -14.4°
Sets 05:42:12 0° 185° (S) 3,029 6.6 -14.1°
